Date,TemperatureHighF,TemperatureAvgF,TemperatureLowF,DewpointHighF,DewpointAvgF,DewpointLowF,HumidityHigh,HumidityAvg,HumidityLow,PressureMaxIn,PressureMinIn,WindSpeedMaxMPH,WindSpeedAvgMPH,GustSpeedMaxMPH,PrecipitationSumIn
2012-1-1,39,32,22,26,15,4,74,50,30,30.70,30.14,30,7,30,0.00
2012-1-2,37,24,14,10,6,4,64,46,30,30.76,30.46,15,3,15,0.00
2012-1-3,53,38,22,32,22,5,74,55,40,30.46,30.00,23,5,23,0.00
2012-1-4,57,42,31,31,27,24,74,55,36,30.32,30.13,26,5,26,0.00
2012-1-5,68,46,32,34,28,23,71,51,27,30.14,29.72,18,3,18,0.00
2012-1-6,51,42,28,28,23,15,60,48,29,30.12,29.70,25,5,25,0.00
2012-1-7,40,31,20,24,19,12,75,60,47,30.32,30.12,11,1,11,0.00
2012-1-8,42,34,29,31,28,24,90,79,62,30.36,30.27,13,2,13,0.00
2012-1-9,55,36,22,31,26,18,84,67,40,30.28,30.08,12,2,12,0.00
2012-1-10,60,41,27,35,29,22,85,64,38,30.08,29.68,15,2,15,0.00
2012-1-11,39,29,15,32,19,0,81,65,49,30.15,29.63,40,11,40,0.00
2012-1-12,23,15,9,6,-3,-11,76,46,22,30.19,30.11,31,9,31,0.00
2012-1-13,41,26,11,22,13,-4,74,57,45,30.19,29.93,19,3,19,0.00
2012-1-14,46,37,30,26,19,14,67,50,29,30.23,29.96,26,6,26,0.00
2012-1-15,61,40,29,28,22,15,65,49,28,30.03,29.70,18,5,18,0.00
2012-1-16,35,25,14,24,16,6,79,67,54,30.10,29.72,25,8,26,0.00
2012-1-17,25,15,9,9,6,2,81,67,48,30.48,30.08,25,5,25,0.00
2012-1-18,49,26,11,22,11,-2,73,57,23,30.31,29.85,22,6,23,0.00
2012-1-19,14,8,1,0,-4,-8,66,57,45,30.24,29.99,23,5,23,0.00
2012-1-20,25,14,9,8,3,-1,76,62,47,30.34,29.95,23,5,23,0.00
2012-1-21,28,17,5,18,8,0,80,69,51,30.33,29.57,27,6,27,0.00
2012-1-22,39,29,19,32,23,16,96,79,52,29.74,29.40,26,5,26,0.09
2012-1-23,47,34,24,28,23,19,85,66,39,30.05,29.73,24,4,24,0.02
2012-1-24,35,27,18,29,22,15,89,84,76,30.28,30.05,15,3,15,0.00
2012-1-25,47,33,25,32,25,20,93,74,42,30.28,29.92,17,3,17,0.01
2012-1-26,49,38,26,35,24,18,79,57,34,30.04,29.89,28,4,28,0.00
2012-1-27,43,35,27,29,21,14,68,56,48,30.32,29.80,33,5,33,0.00
2012-1-28,44,30,18,17,12,7,76,50,23,30.32,30.24,34,6,34,0.00
2012-1-29,52,39,27,22,16,9,57,39,25,30.25,29.90,19,3,19,0.00
2012-1-30,68,51,46,29,23,22,38,35,23,29.90,29.68,10,5,17,0.00
2012-1-31,61,56,38,33,28,6,61,35,27,30.06,29.71,22,4,22,0.00
2012-2-1,61,41,0,28,19,0,67,27,25,30.13,30.03,16,1,16,0.00
2012-2-2,57,53,39,30,26,23,61,35,29,30.18,30.07,14,1,14,0.00
2012-2-3,52,42,31,36,31,28,95,71,40,30.25,29.97,25,6,25,0.15
2012-2-4,31,28,22,30,26,19,95,94,91,30.50,30.23,13,0,13,0.01
2012-2-5,33,22,10,28,19,8,91,88,80,30.53,30.38,0,0,0,0.05
2012-2-6,38,25,13,29,21,10,91,82,67,30.38,30.21,16,1,16,0.00
2012-2-7,30,24,20,27,21,16,95,88,85,30.62,30.33,25,7,25,0.00
2012-2-8,25,20,14,20,16,11,88,83,75,30.61,30.39,8,2,11,0.01
2012-2-9,31,25,21,24,21,19,92,85,69,30.39,30.09,23,4,23,0.00
2012-2-10,29,15,1,21,6,-7,80,67,54,30.74,30.21,24,7,24,0.00
2012-2-11,15,4,-5,2,-5,-11,79,66,51,30.92,30.74,17,2,17,0.00
2012-2-12,22,12,-2,12,4,-6,82,70,61,30.76,30.39,24,4,24,0.00
2012-2-13,22,22,22,12,12,12,64,64,64,30.39,30.39,4,4,23,0.00
2012-2-14,22,22,22,12,12,12,64,64,64,30.39,30.39,4,4,23,0.00
2012-2-15,22,22,22,12,12,12,64,64,64,30.39,30.39,4,4,23,0.00
2012-2-16,22,22,22,12,12,12,64,64,64,30.39,30.39,4,4,23,0.00
2012-2-17,40,33,22,28,23,12,82,69,50,30.39,30.07,14,3,23,0.00
2012-2-18,38,28,16,22,19,14,90,72,48,30.33,30.15,10,2,10,0.00
2012-2-19,43,33,22,34,26,18,85,76,67,30.16,29.85,22,4,23,0.00
2012-2-20,48,38,34,42,34,29,94,86,73,29.85,29.52,27,7,27,0.00
2012-2-21,50,38,29,30,27,23,84,66,44,29.92,29.63,18,4,18,0.00
2012-2-22,56,44,34,37,33,28,83,67,48,29.63,29.33,18,3,18,0.00
2012-2-23,42,38,30,36,30,22,87,73,58,29.95,29.26,35,9,35,0.00
2012-2-24,44,33,27,28,22,19,83,68,37,30.31,29.95,27,6,27,0.00
2012-2-25,46,32,19,29,22,15,88,68,45,30.34,29.62,31,6,31,0.00
2012-2-26,51,40,27,26,21,16,71,48,34,30.33,29.66,25,6,25,0.00
2012-2-27,40,30,16,23,16,9,76,57,44,30.55,30.24,20,4,20,0.00
2012-2-28,59,42,31,52,36,22,92,77,56,30.24,29.33,32,8,33,0.09
2012-2-29,46,35,27,29,24,20,83,64,47,29.87,29.50,33,10,33,0.00
2012-3-1,47,35,26,32,27,21,85,73,56,29.86,29.65,21,4,21,0.00
2012-3-2,45,36,29,27,22,16,83,59,32,30.01,29.75,26,6,26,0.00
2012-3-3,45,32,20,24,19,14,78,58,36,30.06,29.93,24,5,24,0.00
2012-3-4,55,41,28,38,29,20,91,63,36,30.22,29.86,33,6,33,0.01
2012-3-5,67,44,25,35,27,20,82,55,28,30.24,29.73,29,6,29,0.00
2012-3-6,71,57,38,51,35,25,77,47,24,29.73,29.43,26,6,26,0.00
2012-3-7,59,41,30,51,32,23,83,70,63,30.18,29.40,31,8,31,0.00
2012-3-8,52,38,25,23,18,15,79,49,24,30.49,30.18,28,4,28,0.00
2012-3-9,64,46,25,25,19,15,72,39,19,30.54,30.24,28,5,28,0.00
2012-3-10,68,51,37,31,23,16,47,34,20,30.24,29.96,32,9,32,0.00
2012-3-11,48,44,43,43,38,28,94,81,47,30.00,29.68,18,4,18,0.36
2012-3-12,76,54,38,48,40,35,94,65,24,29.91,29.63,16,4,16,0.02
2012-3-13,80,61,41,48,41,34,79,51,27,29.92,29.67,23,4,23,0.00
2012-3-14,77,62,41,46,39,34,88,49,24,29.90,29.66,22,3,22,0.00
2012-3-15,79,59,41,58,44,33,84,58,34,29.94,29.85,11,1,11,0.00
2012-3-16,82,62,43,59,52,41,95,73,32,29.90,29.67,24,3,24,0.00
2012-3-17,65,62,57,60,58,55,94,89,79,29.68,29.61,24,6,24,0.00
2012-3-18,72,68,67,60,59,58,75,73,66,29.53,29.48,35,12,0,0.00
2012-3-19,67,58,50,59,54,48,92,85,76,29.59,29.43,30,7,0,0.21
2012-3-20,52,50,46,48,44,38,93,82,68,29.88,29.57,19,3,0,0.00
2012-3-21,58,53,48,56,49,42,95,87,75,29.94,29.79,19,5,0,0.25
2012-3-22,61,52,43,55,46,41,95,79,51,29.92,29.77,19,2,0,0.07
2012-3-23,70,55,41,47,43,38,94,67,38,29.97,29.88,11,1,0,0.00
2012-3-24,82,61,43,54,47,39,85,62,34,30.02,29.89,17,2,0,0.00
2012-3-25,79,61,45,56,48,42,90,67,39,30.05,29.89,17,2,0,0.00
2012-3-26,82,69,57,58,54,50,79,61,37,29.92,29.54,36,9,0,0.00
2012-3-27,74,64,50,56,38,29,81,42,20,29.91,29.55,32,4,0,0.00
2012-3-28,77,61,44,45,39,33,73,47,27,29.98,29.79,21,4,0,0.00
2012-3-29,66,58,52,61,52,42,94,81,50,29.81,29.63,17,3,0,0.10
2012-3-31,81,73,68,52,47,43,56,41,27,29.58,29.55,15,2,0,0.00
2012-4-1,68,62,58,59,57,52,93,83,57,29.55,29.43,14,3,0,0.00
2012-4-2,70,56,48,52,46,43,83,72,51,29.83,29.55,29,9,0,0.00
2012-4-3,56,51,46,45,43,40,89,75,65,30.01,29.83,27,7,0,0.00
2012-4-4,55,50,46,48,43,37,92,78,56,29.95,29.80,17,3,0,0.37
2012-4-5,68,55,44,50,45,33,94,71,28,30.00,29.82,15,2,0,0.00
2012-4-6,64,52,40,49,44,37,90,75,56,30.07,29.84,34,6,0,0.00
2012-4-7,60,52,40,51,38,24,93,62,26,30.33,29.89,27,5,0,0.06
2012-4-8,73,53,37,40,33,27,83,49,27,30.35,30.13,29,4,0,0.00
2012-4-9,66,52,35,32,29,24,77,45,25,30.24,30.13,16,2,0,0.00
2012-4-10,62,49,36,30,25,20,66,41,28,30.29,30.16,9,1,0,0.00
2012-4-11,60,47,32,30,23,17,56,40,29,30.34,30.12,15,4,0,0.00
2012-4-12,55,49,42,52,44,32,94,85,55,30.00,29.71,25,7,0,0.18
2012-4-13,70,63,53,53,47,41,85,58,44,29.76,29.57,26,5,0,0.01
2012-4-14,65,58,49,63,51,39,93,81,63,29.75,29.28,28,4,0,0.12
2012-4-15,61,54,44,58,47,37,95,77,44,29.68,29.12,42,8,0,0.30
2012-4-16,58,49,44,39,37,33,80,64,45,30.20,29.68,30,4,0,0.00
2012-4-17,76,58,44,50,43,37,82,60,28,30.20,29.94,27,5,0,0.00
2012-4-18,71,63,49,51,47,44,90,58,40,29.99,29.77,14,2,0,0.00
2012-4-19,59,51,44,51,46,39,87,82,74,29.99,29.67,23,4,0,0.03
2012-4-20,61,50,42,40,36,32,84,60,39,30.15,29.99,19,3,0,0.00
2012-4-21,72,56,44,48,36,32,67,50,27,30.08,29.93,22,4,0,0.00
2012-4-22,62,50,40,36,34,32,79,57,32,30.26,30.07,23,6,0,0.00
2012-4-23,74,69,61,45,43,38,53,40,31,30.06,29.83,17,4,0,0.00
2012-4-24,95,70,51,53,46,43,79,48,18,29.83,29.47,16,2,0,0.00
2012-4-25,87,69,57,52,48,45,75,50,27,29.75,29.41,20,2,0,0.00
2012-4-26,75,65,54,51,48,44,76,54,40,29.94,29.74,20,3,0,0.00
2012-4-27,62,53,45,48,44,41,93,74,53,29.83,29.46,29,7,0,0.70
2012-4-28,66,55,44,48,44,42,94,70,45,30.02,29.68,13,2,0,0.00
2012-4-29,60,50,46,49,46,44,94,85,66,30.03,29.93,12,1,0,0.00
2012-4-30,74,56,44,58,50,43,95,80,50,30.02,29.71,20,2,0,0.00
2012-5-1,80,69,55,65,60,54,95,76,54,29.73,29.45,24,4,0,0.00
2012-5-2,88,72,55,66,60,52,94,70,34,29.62,29.51,18,1,0,0.00
2012-5-3,80,70,62,69,64,58,95,84,67,29.76,29.58,13,1,0,0.08
2012-5-4,90,75,64,72,66,62,96,76,45,29.75,29.60,18,2,0,0.01
2012-5-5,92,78,66,70,65,59,93,69,34,29.69,29.53,24,4,0,0.00
2012-5-6,74,61,53,67,53,40,93,75,46,30.07,29.63,25,5,0,0.08
2012-5-7,67,57,48,44,39,33,73,51,30,30.16,30.02,21,4,0,0.00
2012-5-8,68,56,42,40,37,31,80,52,28,30.11,30.00,24,3,0,0.00
2012-5-9,74,58,38,46,41,35,88,57,33,30.11,29.84,13,1,0,0.00
2012-5-10,88,71,50,52,46,42,79,46,23,29.84,29.62,23,5,0,0.00
2012-5-11,71,59,47,48,40,34,64,50,37,30.26,29.69,25,6,0,0.00
2012-5-12,65,55,46,44,40,35,74,58,42,30.36,30.25,15,2,0,0.00
2012-5-13,74,62,49,47,45,42,82,54,35,30.29,30.11,13,1,0,0.00
2012-5-14,84,66,46,50,42,35,86,49,19,30.13,29.93,12,1,0,0.00
2012-5-15,82,68,51,50,40,35,65,38,20,30.05,29.91,24,3,0,0.00
2012-5-16,82,67,49,44,39,36,62,38,22,30.09,29.85,17,3,0,0.00
2012-5-17,91,76,60,54,49,41,66,41,24,29.85,29.57,33,7,0,0.00
2012-5-18,90,78,66,57,54,49,67,45,29,29.65,29.47,33,8,0,0.00
2012-5-19,81,68,55,60,56,50,91,66,48,29.90,29.47,26,5,0,0.54
2012-5-20,71,60,52,53,48,44,90,67,42,30.22,29.90,19,3,0,0.00
2012-5-21,78,64,50,46,44,40,77,51,31,30.25,29.96,20,3,0,0.00
2012-5-22,87,72,60,60,53,43,64,51,38,29.97,29.50,31,7,0,0.00
2012-5-23,86,72,62,64,57,47,73,59,46,29.50,29.29,24,6,0,0.00
2012-5-24,76,62,53,56,52,48,94,74,39,29.76,29.25,27,4,0,1.20
2012-5-25,67,59,53,59,54,49,91,82,72,29.91,29.76,16,2,0,0.16
2012-5-26,98,79,59,71,64,55,93,65,29,29.80,29.54,36,6,0,0.01
2012-5-27,90,77,62,68,63,58,92,64,39,29.59,29.36,31,7,0,0.40
2012-5-28,81,68,56,59,49,42,93,57,26,29.81,29.57,16,2,0,0.03
2012-5-29,78,65,53,51,46,39,68,51,34,30.01,29.80,17,2,0,0.00
2012-5-30,61,55,49,54,47,40,91,76,60,30.03,29.72,25,3,0,0.37
2012-5-31,60,52,44,48,42,39,92,71,50,30.09,29.94,21,4,0,0.00
2012-6-1,63,52,42,52,46,40,92,80,61,30.06,29.85,16,2,0,0.05
2012-6-2,85,69,52,58,51,48,90,59,30,29.89,29.71,12,2,0,0.00
2012-6-3,91,76,61,65,59,51,81,57,35,29.76,29.64,15,2,0,0.00
2012-6-4,90,78,64,63,58,55,82,54,33,29.89,29.75,13,1,0,0.00
2012-6-5,72,65,59,55,54,53,83,67,55,29.85,29.83,1,0,0,0.00
2012-6-6,86,80,70,58,56,54,64,45,36,29.91,29.80,18,4,0,0.00
2012-6-7,85,79,70,59,56,55,60,46,36,29.93,29.86,21,4,0,0.00
2012-6-8,87,75,60,58,54,49,81,51,31,29.93,29.69,25,4,0,0.00
2012-6-9,91,78,64,65,60,50,74,55,41,29.70,29.42,34,7,0,0.00
2012-6-10,80,73,61,68,60,52,76,64,45,29.75,29.41,25,5,0,0.00
2012-6-11,82,69,56,53,48,40,85,50,32,30.05,29.74,23,3,0,0.00
2012-6-12,78,67,54,53,49,44,76,53,40,30.16,29.95,20,3,0,0.00
2012-6-13,90,76,62,64,58,51,81,55,37,30.04,29.62,18,7,0,0.16
2012-6-14,89,78,65,72,66,60,93,70,55,29.80,29.59,24,4,0,0.70
2012-6-15,81,71,62,66,63,60,93,76,55,29.88,29.75,11,1,0,0.00
2012-6-16,84,72,64,68,64,57,95,78,50,29.95,29.82,14,1,0,1.42
2012-6-17,92,79,66,72,65,60,90,66,39,29.93,29.40,27,5,0,0.00
2012-6-18,95,84,73,74,68,61,74,61,47,29.44,29.36,28,6,0,0.00
2012-6-19,92,83,74,71,68,66,77,62,49,29.54,29.43,31,9,0,0.00
2012-6-20,79,69,59,68,63,57,94,82,64,29.98,29.49,26,4,0,0.39
2012-6-21,84,68,52,60,54,48,94,65,37,30.13,29.98,13,1,0,0.00
2012-6-22,84,72,60,62,59,55,85,64,43,30.02,29.75,21,4,0,0.00
2012-6-23,85,74,63,73,66,59,89,77,62,29.92,29.59,35,5,0,0.37
2012-6-24,90,79,65,76,70,63,94,77,59,29.81,29.66,14,1,0,0.00
2012-6-25,86,78,73,76,73,70,93,84,70,29.86,29.74,19,3,0,0.00
2012-6-26,92,87,80,78,74,66,73,66,60,29.65,29.47,26,6,0,0.00
2012-6-27,105,84,76,72,65,58,67,53,28,29.66,29.52,23,4,0,0.00
2012-6-28,90,81,70,80,73,64,92,77,59,29.80,29.65,26,1,0,0.03
2012-6-29,91,83,76,76,73,66,92,74,57,29.75,29.63,18,2,0,0.00
2012-6-30,91,79,67,76,71,65,94,78,55,29.73,29.64,21,2,0,0.00
2012-7-2,93,83,74,73,68,62,72,60,38,29.79,29.67,21,4,0,0.00
2012-7-3,86,77,74,70,66,64,72,68,58,29.72,29.68,15,4,0,0.00
2012-7-4,100,91,78,72,69,63,63,51,38,29.68,29.59,21,5,0,0.00
2012-7-5,96,85,76,73,68,64,74,58,45,29.77,29.68,15,3,0,0.01
2012-7-6,98,86,74,76,69,64,72,57,41,29.82,29.76,15,3,0,0.00
2012-7-7,82,74,67,71,68,63,88,79,61,30.02,29.82,17,3,0,0.00
2012-7-8,81,74,70,70,65,61,84,72,56,30.10,30.01,14,2,0,0.00
2012-7-9,85,75,65,67,64,61,93,70,48,30.09,29.99,13,1,0,0.16
2012-7-10,84,78,69,65,61,58,80,56,44,30.09,29.99,12,1,0,0.00
2012-7-11,84,69,60,63,59,57,92,74,42,30.05,29.92,5,0,0,0.00
2012-7-12,92,75,62,68,62,58,91,68,37,29.96,29.84,13,1,0,0.00
2012-7-13,91,83,68,68,66,62,84,58,42,29.91,29.88,13,1,0,0.00
2012-7-15,95,90,80,74,70,63,59,52,43,29.83,29.73,21,4,0,0.00
2012-7-16,93,82,72,71,65,59,70,57,39,29.80,29.64,17,3,0,0.00
2012-7-17,78,77,77,67,66,66,69,69,68,29.69,29.68,9,1,0,0.00
2012-7-18,85,84,83,69,68,67,61,59,57,29.80,29.77,7,2,0,0.00
2012-7-19,94,82,73,74,69,65,85,65,42,29.93,29.78,6,1,0,0.00
2012-7-20,96,83,71,72,66,63,79,59,38,29.95,29.87,15,3,0,0.00
2012-7-21,96,91,78,68,65,59,58,44,36,29.94,29.80,21,5,0,0.00
2012-7-22,100,83,68,67,60,54,66,46,30,29.91,29.79,18,3,0,0.00
2012-7-23,87,84,81,65,62,61,54,49,42,29.84,29.77,15,4,0,0.00
2012-7-24,83,80,77,64,62,61,62,55,50,29.79,29.74,16,4,0,0.00
2012-7-25,97,89,79,74,68,64,64,51,41,29.65,29.55,23,2,0,0.00
2012-7-26,98,83,68,68,64,59,86,57,30,29.83,29.64,12,1,0,0.00
2012-7-28,94,86,76,74,69,63,65,57,48,29.95,29.77,18,5,0,0.00
2012-7-29,98,90,81,70,66,56,62,46,28,29.84,29.77,10,1,0,0.00
2012-7-30,81,73,68,67,63,60,82,72,62,29.90,29.78,18,2,0,0.03
2012-7-31,94,88,73,73,70,64,89,56,45,29.89,29.79,11,1,0,0.00
2012-8-1,92,79,70,72,69,65,91,73,47,29.85,29.75,14,2,0,0.05
2012-8-3,80,78,77,70,69,68,77,74,70,29.66,29.61,10,1,0,0.00
2012-8-4,79,67,59,69,59,53,87,75,62,29.93,29.66,23,5,0,0.03
2012-8-5,76,72,70,63,62,60,73,70,64,30.06,30.04,10,2,0,0.00
2012-8-6,93,82,68,67,61,56,69,51,38,30.06,29.83,17,4,0,0.00
2012-8-7,93,88,73,70,67,63,82,52,41,29.88,29.83,16,3,0,0.00
2012-8-8,92,75,68,68,63,57,85,70,32,29.90,29.80,16,2,0,0.00
2012-8-9,82,73,64,65,60,56,88,64,42,30.02,29.90,16,3,0,0.00
2012-8-10,82,72,65,56,55,51,69,55,35,30.00,29.96,10,1,0,0.00
2012-8-11,79,69,58,60,56,52,81,65,48,30.00,29.81,15,3,0,0.00
2012-8-12,80,73,63,63,59,56,78,63,49,29.93,29.79,23,5,0,0.00
2012-8-13,80,74,64,57,55,53,71,53,40,30.02,29.95,9,1,0,0.00
2012-8-14,82,70,62,65,60,55,83,70,54,29.99,29.76,22,4,0,0.00
2012-8-15,92,74,62,69,63,55,92,70,46,29.84,29.61,27,5,0,0.00
2012-8-16,73,65,55,56,50,45,77,59,38,30.08,29.84,24,4,0,0.00
2012-8-17,79,64,47,50,47,44,89,59,31,30.12,29.96,8,0,0,0.00
2012-8-18,80,64,57,59,52,45,89,67,45,30.01,29.81,18,2,0,0.16
2012-8-19,80,64,49,55,50,45,94,65,31,30.09,29.94,10,1,0,0.00
2012-8-20,88,70,53,55,50,46,77,52,29,30.00,29.85,16,1,0,0.00
2012-8-21,92,76,58,62,55,50,80,52,30,29.93,29.84,17,2,0,0.00
2012-8-22,90,77,62,64,56,50,72,49,32,29.87,29.75,26,5,0,0.00
2012-8-23,84,76,68,68,64,55,80,67,55,29.80,29.73,19,4,0,0.00
2012-8-24,76,70,67,66,64,62,93,83,71,29.79,29.71,18,4,0,0.00
2012-8-26,87,85,82,68,67,65,61,56,51,29.94,29.92,8,1,0,0.00
2012-8-27,86,75,65,70,67,63,94,79,57,30.09,30.02,16,2,0,0.00
2012-8-28,93,84,71,66,62,53,74,48,34,30.01,29.83,23,7,0,0.00
2012-8-29,78,72,67,55,54,53,63,53,43,29.85,29.76,15,4,0,0.00
2012-8-30,78,71,66,59,56,54,66,57,49,29.82,29.75,13,3,0,0.00
2012-8-31,96,78,60,66,60,56,90,57,30,29.91,29.82,12,0,0,0.00
2012-9-1,94,79,64,68,65,62,94,66,39,29.95,29.82,10,1,0,0.00
2012-9-2,98,81,66,70,66,62,90,63,35,29.85,29.70,16,2,0,0.00
2012-9-3,84,76,68,70,67,64,88,74,62,29.80,29.73,13,1,0,0.00
2012-9-4,99,80,65,67,62,54,93,59,24,29.79,29.59,21,2,0,0.00
2012-9-5,83,72,63,59,53,45,78,53,28,29.89,29.64,20,3,0,0.00
2012-9-6,91,73,55,64,54,42,71,51,38,29.92,29.66,23,4,0,0.00
2012-9-7,72,65,61,54,50,48,70,59,43,30.06,29.74,20,4,0,0.01
2012-9-10,89,79,59,54,50,47,67,37,25,29.98,29.76,29,8,0,0.00
2012-9-11,94,79,67,55,49,43,46,36,26,29.76,29.66,27,6,0,0.00
2012-9-12,76,63,52,59,47,36,94,60,32,30.26,29.71,32,6,0,0.61
2012-9-13,71,58,49,51,47,43,94,71,38,30.41,30.25,12,1,0,0.00
2012-9-14,63,52,46,45,43,41,84,73,50,30.35,30.21,11,2,0,0.00
2012-9-15,80,64,47,57,45,40,86,54,26,30.21,30.00,14,2,0,0.00
2012-9-16,78,66,59,59,56,52,93,73,42,30.01,29.80,16,4,0,0.00
2012-9-17,69,59,50,55,46,36,93,65,32,30.06,29.79,28,3,0,0.00
2012-9-18,69,52,44,43,40,37,82,65,37,30.09,29.99,14,1,0,0.00
2012-9-19,88,83,81,50,45,43,28,26,25,29.86,29.80,27,6,0,0.00
2012-9-21,72,68,58,42,39,36,50,35,29,29.93,29.89,24,7,0,0.00
2012-9-22,67,59,48,35,32,28,48,38,29,30.27,30.19,14,2,0,0.00
2012-9-23,71,55,38,39,34,27,79,48,29,30.31,30.14,17,2,0,0.00
2012-9-24,74,60,46,54,44,36,73,57,47,30.14,29.78,10,1,0,0.00
2012-9-25,83,66,51,54,49,45,84,57,31,29.84,29.77,11,0,0,0.00
2012-9-26,77,63,51,47,42,38,66,47,31,30.11,29.82,13,1,0,0.00
2012-9-27,79,61,44,45,40,34,87,51,27,30.17,30.06,9,0,0,0.00
2012-9-28,82,62,45,49,40,34,81,49,24,30.15,30.02,8,0,0,0.00
2012-9-29,78,61,44,52,43,38,90,56,28,30.13,29.98,12,0,0,0.00
2012-9-30,81,62,45,52,43,37,92,55,25,30.01,29.86,11,0,0,0.00
2012-10-1,69,60,52,53,42,33,86,53,38,30.02,29.88,24,3,0,0.07
2012-10-2,75,56,36,40,34,30,82,48,24,30.02,29.80,15,2,0,0.00
2012-10-3,83,64,46,52,42,34,66,48,32,29.99,29.64,27,5,0,0.00
2012-10-4,55,47,40,40,33,29,77,59,41,30.33,29.99,27,6,0,0.00
2012-10-5,51,41,36,29,28,23,72,59,41,30.39,30.29,16,2,0,0.00
2012-10-6,43,37,28,28,22,19,83,55,38,30.44,30.32,15,2,0,0.00
2012-10-7,55,40,25,35,28,23,90,67,39,30.36,30.03,19,4,0,0.00
2012-10-8,74,53,35,36,32,28,84,50,19,30.03,29.74,19,3,0,0.00
2012-10-9,56,49,37,41,32,24,77,55,32,30.17,29.78,29,4,0,0.00
2012-10-10,65,47,28,35,29,22,80,53,31,30.24,30.00,24,3,0,0.00
2012-10-11,57,50,39,37,32,26,58,49,44,30.32,29.94,24,5,0,0.00
2012-10-12,50,39,34,45,26,21,83,60,46,30.33,29.96,15,3,0,0.00
2012-10-13,75,61,49,60,53,43,94,78,52,29.96,29.54,17,4,0,0.64
2012-10-14,74,60,49,44,41,38,73,52,33,29.96,29.63,23,4,0,0.00
2012-10-15,82,59,42,47,41,36,81,57,27,29.96,29.66,15,2,0,0.00
2012-10-16,80,66,53,49,45,39,71,49,28,29.66,29.30,19,3,0,0.00
2012-10-17,68,57,48,48,34,20,81,43,23,29.68,29.29,38,9,0,0.02
2012-10-18,52,49,45,34,28,21,57,44,37,29.77,29.62,39,12,0,0.00
2012-10-19,58,47,40,38,33,31,72,60,39,29.86,29.75,33,7,0,0.00
2012-10-20,74,60,40,40,38,34,80,47,29,29.79,29.61,18,3,0,0.00
2012-10-21,80,61,42,60,46,37,85,59,39,29.75,29.62,17,2,0,0.00
2012-10-22,57,51,46,49,46,43,94,86,64,29.80,29.71,20,4,0,0.01
2012-10-23,60,53,47,56,51,46,96,93,83,29.78,29.63,7,0,0,0.00
2012-10-24,50,47,42,49,43,36,95,87,74,29.80,29.71,25,5,0,0.07
2012-10-25,42,35,32,36,30,25,92,80,67,30.41,29.75,30,8,0,0.17
2012-10-26,40,33,27,25,23,21,83,66,52,30.58,30.41,17,4,0,0.01
2012-10-27,45,34,26,30,26,21,83,71,54,30.45,30.23,19,3,0,0.00
2012-10-28,52,39,26,33,28,22,87,67,45,30.29,30.13,21,4,0,0.00
2012-10-29,64,48,36,38,34,29,75,57,38,30.15,30.01,15,3,0,0.00
2012-10-30,60,47,37,37,34,31,81,62,41,30.03,29.95,12,2,0,0.00
2012-10-31,67,44,36,43,34,30,82,69,41,30.05,29.96,9,0,0,0.00
2012-11-1,58,47,40,44,39,36,89,74,57,30.02,29.90,16,3,0,0.00
2012-11-2,52,41,36,39,36,33,91,80,61,30.14,29.87,18,3,0,0.00
2012-11-3,56,42,28,40,34,25,90,73,49,30.25,30.13,15,2,0,0.00
2012-11-4,56,46,39,40,37,34,88,71,54,30.18,29.99,12,2,0,0.00
2012-11-5,46,41,37,38,34,32,85,78,64,30.21,30.05,20,4,0,0.00
2012-11-10,77,54,28,58,43,22,90,69,44,29.74,29.32,29,10,0,0.67
2012-11-11,32,25,18,22,13,9,79,61,40,30.29,29.74,25,6,0,0.00
2012-11-12,45,30,18,17,13,10,72,51,27,30.40,30.29,20,5,0,0.00
2012-11-13,55,40,24,28,21,13,65,48,29,30.40,30.24,13,3,0,0.00
2012-11-14,56,40,24,31,26,18,77,58,34,30.32,30.16,15,2,0,0.00
2012-11-15,56,46,34,34,31,27,75,57,39,30.44,30.18,17,2,0,0.00
2012-11-16,56,40,25,36,31,22,90,70,43,30.44,30.24,20,3,0,0.00
2012-11-17,63,48,37,42,35,30,74,61,45,30.24,30.05,31,6,0,0.00
2012-11-18,58,47,38,40,35,31,77,63,49,30.07,29.94,19,4,0,0.00
2012-11-19,66,48,33,41,34,30,86,63,37,30.17,29.96,15,2,0,0.00
2012-11-20,64,42,29,38,31,24,82,66,37,30.23,30.07,21,3,0,0.00
2012-11-21,64,48,40,43,37,34,81,67,44,30.07,29.91,31,6,0,0.00
2012-11-25,38,35,33,24,24,23,70,64,57,30.16,30.01,11,3,0,0.00
2012-11-26,33,26,16,24,20,12,89,78,69,30.51,30.15,19,4,0,0.00
2012-11-27,46,29,16,30,22,13,89,77,52,30.50,30.22,22,3,0,0.00
2012-11-28,50,33,16,32,24,14,92,71,47,30.40,30.09,18,3,0,0.00
2012-11-29,44,35,29,29,27,24,83,72,52,30.09,29.98,11,2,0,0.00
2012-11-30,52,40,30,32,29,24,77,64,46,30.08,29.92,16,3,0,0.00
2012-12-1,61,53,42,48,44,40,95,74,51,29.86,29.77,11,2,0,0.00
2012-12-2,69,50,32,41,36,28,85,62,34,29.99,29.64,18,3,0,0.00
2012-12-3,50,41,36,40,26,19,90,58,36,30.13,29.57,11,1,0,0.00
2012-12-4,42,40,39,23,22,21,51,47,44,30.27,30.25,4,1,0,0.00
2012-12-5,60,44,36,28,23,20,55,44,28,30.26,29.90,36,7,0,0.00
2012-12-6,40,39,38,26,25,25,60,57,55,30.02,30.00,9,2,0,0.00
2012-12-7,45,35,25,31,26,20,86,69,49,30.04,29.87,16,2,0,0.01
2012-12-8,35,30,23,31,26,20,91,86,78,30.04,29.83,18,3,0,0.00
2012-12-9,37,21,7,31,11,0,85,66,55,30.30,29.87,36,10,0,0.00
2012-12-10,36,18,1,11,4,-4,78,57,33,30.29,29.97,24,3,0,0.00
2012-12-11,44,31,18,22,16,9,80,56,34,30.10,29.97,20,4,0,0.00
2012-12-12,52,36,27,21,17,14,57,47,29,29.99,29.86,22,6,0,0.00
2012-12-13,52,48,29,28,26,20,71,42,37,30.06,30.02,12,2,0,0.00
2012-12-14,49,36,21,42,29,16,92,75,52,30.03,29.51,20,2,0,0.14
2012-12-15,42,40,31,40,36,25,94,87,79,29.77,29.44,18,3,0,0.38
2012-12-16,38,30,26,26,23,22,89,77,54,29.84,29.76,12,2,0,0.03
2012-12-17,44,33,25,31,25,21,89,75,53,29.79,29.52,15,3,0,0.00
2012-12-18,50,40,29,30,27,25,85,62,38,29.73,29.51,20,5,0,0.00
2012-12-19,34,31,22,30,27,20,92,85,77,29.96,29.80,32,4,0,0.00
2012-12-20,22,20,16,20,17,14,99,91,89,30.09,29.95,25,10,0,0.00
2012-12-21,22,11,8,17,8,4,87,84,80,30.35,30.22,10,1,0,0.01
2012-12-22,42,26,15,26,19,12,94,76,50,30.22,30.00,16,3,0,0.01
2012-12-23,20,15,8,15,10,4,92,81,71,30.18,30.02,15,2,0,0.00
2012-12-24,15,12,8,8,6,2,80,76,71,30.36,30.13,20,5,0,0.00
2012-12-25,14,9,4,8,3,-1,87,76,70,30.59,30.35,19,5,0,0.00
2012-12-26,17,8,0,8,3,-4,92,79,64,30.49,30.20,11,2,0,0.00
2012-12-27,20,17,10,18,13,5,96,87,80,30.20,30.01,17,4,0,0.00
2012-12-28,18,14,4,15,10,0,89,83,78,30.24,30.08,18,4,0,0.00
2012-12-29,32,14,0,22,9,-3,86,79,67,30.37,30.23,13,2,0,0.02
2012-12-30,33,26,14,23,18,9,82,72,63,30.33,30.01,23,5,0,0.00
2012-12-31,24,19,17,17,15,13,92,84,75,30.32,30.17,17,4,0,0.00
2013-1-1,55,16,10,52,13,7,90,85,76,30.40,29.91,16,3,0,0.00